Погода в Кутуши

Россия / Оренбургская область     52°26′28″N   51°59′17″E
темп.,
°C
ветер,
м/с
пор.,
м/с
влажн.,
%
обл.,
%
осадки,
мм/ч
давл.,
гПа
погр.,
м
26 июля, пн
пн2623:00+15с37420 0.0 1021102
02:00+13с33440 0.0 102234
05:00+12с22470 0.0 102216
08:00+15с35425 0.0 1023220
11:00+21с56323 0.0 10232121
14:00+23с56277 0.0 10222623
17:00+24ссз762627 0.0 10212711
20:00+22сз56322 0.0 1021874
27 июля, вт
вт2723:00+16сз35488 0.0 102162
02:00+14сз22535 0.0 102113
05:00+13сз115615 0.0 102110
08:00+18сз23464 0.0 1021185
11:00+23сз46345 0.0 10201919
14:00+25сз4631100 0.0 10182614
17:00+26сз563072 0.0 10162823
20:00+24ссз243727 0.0 1016299
28 июля, ср
ср2823:00+20зсз23465 0.0 101647
02:00+15сз48722 0.0 1016152
05:00+13ссз37900 0.0 1016115
08:00+17ссз24681 0.0 1017240
11:00+22ссз58410 0.0 10161767
14:00+25ссз67273 0.0 10152370
17:00+26ссз68244 0.0 10152572
20:00+24с47280 0.0 1014662
29 июля, чт
чт2923:00+18ссв11410 0.0 101511
02:00+16юз11444 0.0 101511
05:00+16ююз33445 0.0 101421
08:00+19юз364391 0.0 1014188
11:00+24юз354087 0.0 1014841
14:00+28зюз5732100 0.0 10122417
17:00+22ссз101259100 0.0 1011486
20:00+19в2379100 0.2 1011151
30 июля, пт
пт3023:00+18ююв368799 1.1 1010184
02:00+17ю31187100 0.1 1009239
05:00+16юз4108884 0.1 1008191
08:00+20зюз51080100 0.2 1008305
11:00+27з711475 0.3 10081482
14:00+30зсз9113232 0.0 10082665
17:00+30зсз81030100 0.0 10082982
20:00+27з493619 0.0 1008333